Probability
0 0 0 0 0 0 0 0 0 0 0 0 0 0 0 0 0 0 0 0 0 0 0 0 0 0 0 0 0 0 0 0 0 0 0 0 0 0
0 0 0 0 0 0 0 0 0 0 0 0 0 0 0 0 0 0 0 0 0 0 0 0 0 0 0 0 0 0 0 0 0 0 0 0 0 0
0 0 0 0 0 0 0 0 0 0 0 0 0 0 0 0 0 0 0 0 0 0 0 0 0 0 0 0 0 0 0 0 0 0 0 0 0 0
0 0 0 0 0 0 0 0 0 0 0 0 0 0 0 0 0 0 0 0 0 0 0 0 0 0 0 0 0 0 0 0 0 0 0 0 0 0
0 0 0 0 0 0 0 0 0 0 0 0 0 0 0 0 0 0 0 0 0 0 0 0 0 0 0 0 0 0 0 0 0 0 0 0 0 0
0 0 0 0 0 0 0 0 0 0 0 0 0 0 0 0 0 0 0 0 0 0 0 0 0 0 0 0 0 0 0 0 0 0 0 0 0 0
0 0 0 0 0 0 0 0 0 0 0 0 0 0 0 0 0 0 0 0 0 0 0 0 0 0 0 0 0 0 0 0 0 0 0 0 0 0
0 0 0 0 0 0 0 0 0 0 0 0 0 0 0 0 0 0 0 0 0 0 0 0 0 0 0 0 0 0 0 0 0 0 0 0 0 0
0 0 0 0 0 0 0 0 0 0 0 0 0 0 0 0 0 0 0 0 0 0 0 0 0 0 0 0 0 0 0 0 0 0 0 0 0 0
0 0 0 0 0 0 0 0 0 0 0 0 0 0 0 0 0 0 0 0 0 0 0 0 0 0 0 0 0 0 0 0 0 0 0 0 0 0
0 0 0 0 0 0 0 0 0 0 0 0 0 0 0 0 0 0 0 0 0 0 0 0 0 0 0 0 0 0 0 0 0 0 0 0 0 0
0 0 0 0 0 0 0 0 0 0 0 0 0 0 0 0 0 0 0 0 0 0 0 0 0 0 0 0 0 0 0 0 0 0 0 0 0 0
0 0 0 0 0 0 0 0 0 0 0 0 0 0 0 0 0 0 0 0 0 0 0 0 0 0 0 0 0 0 0 0 0 0 0 0 0 0
0 0 0 0 0 0 0 0 0 0 0 0 0 0 0 0 0 0 0 0 0 0 0 0 0 0 0 0 0 0 0 0 0 0 0 0 0 0
0 0 0 0 0 0 0 0 0 0 0 0 0 0 0 0 0 0 0 0 0 0 0 0 0 0 0 0 0 0 0 0 0 0 0 0 0 0
0 0 0 0 0 0 0 0 0 0 0 0 0 0 0 0 0 0 0 0 0 0 0 0 0 0 0 0 0 0 0 0 0 0 0 0 0 0
0 0 0 0 0 0 0 0 0 0 0 0 0 0 0 0 0 0 0 0 0 0 0 0 0 0 0 0 0 0 0 0 0 0 0 0 0 0
0 0 0 0 0 0 0 0 0 0 0 0 0 0 0 0 0 0 0 0 0 0 0 0 0 0 0 0 0 0 0 0 0 0 0 0 0 0
0 0 0 0 0 0 0 0 0 0 0 0 0 0 0 0 0 0 0 0 0 0 0 0 0 0 0 0 0 0 0 0 0 0 0 0 0 0
0 0 0 0 0 0 0 0 0 0 0 0 0 0 0 0 0 0 0 0 0 0 0 0 0 0 0 0 0 0 0 0 0 0 0 0 0 0
0 0 0 0 0 0 0 0 0 0 0 0 0 0 0 0 0 0 0 0 0 0 0 0 0 0 0 0 0 0 0 0 0 0 0 0 0 0
0 0 0 0 0 0 0 0 0 0 0 0 0 0 0 0 0 0 0 0 0 0 0 0 0 0 0 0 0 0 0 0 0 0 0 0 0 0
0 0 0 0 0 0 0 0 0 0 0 0 0 0 0 0 0 0 0 0 0 0 0 0 0 0 0 0 0 0 0 0 0 0 0 0 0 0
Height
5675 5677 5679 5681 5683 5684 5686 5688 5690 5692 5695 5697 5698 5700 5701 5703 5705 5707 5708 5709 5710 5711 5712 5713 5714 5714 5714 5714 5714 5714 5713 5712 5712 5711 5710 5709 5709 5708
5661 5663 5666 5668 5669 5671 5673 5674 5676 5678 5681 5684 5685 5686 5688 5690 5692 5693 5695 5696 5697 5698 5699 5700 5700 5701 5701 5701 5701 5701 5701 5700 5699 5699 5698 5697 5696 5695
5648 5650 5652 5653 5655 5657 5659 5661 5662 5664 5666 5669 5670 5672 5674 5676 5678 5680 5681 5682 5684 5685 5686 5686 5687 5688 5688 5688 5688 5688 5687 5687 5686 5686 5685 5684 5684 5683
5634 5635 5637 5639 5641 5643 5645 5647 5648 5649 5651 5654 5656 5658 5660 5662 5664 5666 5667 5668 5670 5671 5671 5672 5673 5673 5674 5674 5674 5674 5674 5673 5673 5672 5672 5672 5671 5669
5619 5621 5622 5624 5626 5628 5630 5632 5634 5635 5637 5639 5642 5643 5645 5647 5649 5651 5652 5654 5655 5656 5657 5658 5658 5659 5659 5660 5659 5660 5659 5659 5659 5658 5657 5657 5657 5656
5603 5605 5607 5609 5611 5612 5614 5616 5618 5620 5622 5623 5626 5628 5630 5632 5634 5636 5637 5639 5640 5640 5641 5642 5643 5644 5644 5644 5645 5645 5644 5644 5643 5643 5643 5642 5642 5641
5587 5589 5590 5592 5594 5596 5598 5600 5602 5604 5606 5608 5610 5612 5615 5616 5618 5620 5621 5623 5624 5625 5626 5627 5627 5628 5628 5628 5628 5628 5628 5628 5628 5628 5627 5627 5627 5626
5571 5572 5574 5576 5578 5580 5582 5584 5586 5588 5590 5592 5594 5596 5598 5600 5602 5603 5605 5607 5609 5611 5610 5611 5611 5612 5612 5612 5613 5612 5612 5612 5612 5611 5611 5611 5611 5610
5555 5556 5558 5560 5561 5563 5565 5567 5569 5571 5574 5576 5577 5579 5581 5583 5585 5587 5588 5589 5592 5593 5593 5595 5595 5596 5596 5596 5596 5596 5596 5596 5595 5595 5594 5594 5594 5594
5539 5540 5542 5543 5545 5547 5549 5551 5553 5555 5557 5559 5562 5563 5564 5565 5567 5570 5571 5573 5575 5576 5576 5577 5579 5579 5580 5580 5580 5580 5580 5579 5579 5578 5577 5577 5577 5577
5522 5524 5525 5527 5529 5530 5532 5535 5537 5538 5539 5542 5544 5545 5547 5549 5550 5552 5554 5555 5558 5560 5559 5560 5562 5562 5563 5564 5563 5563 5562 5562 5562 5561 5560 5560 5560 5560
5506 5507 5508 5510 5511 5512 5514 5517 5519 5521 5522 5524 5526 5528 5529 5531 5533 5535 5537 5538 5540 5542 5543 5543 5544 5544 5546 5548 5547 5546 5545 5545 5545 5544 5544 5543 5543 5543
5488 5490 5491 5493 5494 5495 5497 5499 5501 5503 5505 5507 5508 5510 5512 5514 5516 5518 5519 5520 5522 5524 5526 5525 5526 5527 5527 5530 5530 5529 5529 5528 5528 5527 5527 5527 5526 5526
5471 5473 5474 5475 5476 5477 5479 5481 5483 5484 5486 5488 5491 5493 5495 5497 5499 5500 5502 5502 5504 5506 5507 5507 5509 5510 5511 5512 5513 5513 5512 5511 5511 5510 5510 5510 5510 5510
5453 5455 5456 5457 5458 5460 5462 5463 5464 5466 5468 5471 5473 5475 5477 5479 5481 5482 5484 5485 5487 5488 5489 5490 5492 5493 5493 5494 5496 5496 5496 5495 5495 5494 5494 5494 5494 5493
5435 5437 5438 5439 5441 5443 5444 5446 5447 5449 5451 5453 5455 5457 5459 5461 5463 5465 5467 5468 5470 5472 5472 5473 5474 5475 5476 5477 5478 5479 5479 5479 5479 5478 5478 5478 5478 5477
5418 5419 5420 5422 5424 5425 5427 5428 5430 5432 5433 5435 5437 5439 5441 5443 5445 5447 5449 5450 5452 5455 5456 5457 5457 5458 5459 5460 5461 5462 5462 5462 5462 5462 5462 5462 5462 5462
5401 5402 5404 5405 5407 5409 5410 5412 5413 5415 5416 5418 5420 5422 5424 5426 5428 5430 5432 5434 5436 5438 5439 5440 5441 5441 5443 5444 5444 5445 5445 5446 5446 5446 5446 5446 5447 5447
5385 5386 5388 5389 5391 5392 5394 5396 5398 5399 5400 5402 5404 5406 5407 5409 5411 5413 5415 5417 5419 5421 5423 5424 5425 5426 5427 5429 5430 5429 5429 5429 5429 5430 5430 5430 5432 5432
5370 5371 5373 5374 5375 5377 5378 5380 5382 5384 5385 5387 5388 5390 5392 5394 5396 5398 5400 5402 5404 5405 5407 5408 5409 5410 5411 5412 5413 5414 5413 5413 5413 5414 5414 5415 5416 5417
5356 5357 5358 5359 5360 5362 5363 5365 5367 5369 5370 5372 5373 5375 5376 5378 5381 5383 5384 5386 5388 5390 5391 5393 5394 5394 5395 5396 5397 5398 5398 5398 5398 5398 5399 5400 5401 5402
5342 5343 5344 5345 5346 5347 5349 5350 5352 5354 5356 5357 5359 5360 5362 5363 5366 5368 5369 5371 5373 5374 5376 5377 5378 5378 5379 5380 5381 5383 5383 5383 5383 5383 5384 5385 5385 5387
5329 5329 5330 5331 5332 5333 5335 5336 5338 5340 5341 5343 5344 5346 5347 5349 5351 5353 5354 5356 5358 5360 5361 5362 5363 5364 5364 5365 5366 5367 5368 5368 5369 5369 5370 5370 5371 5373
Wind_Speed
49 48 48 48 50 50 49 49 48 48 47 48 48 47 47 47 47 47 46 46 47 46 46 46 45 45 44 44 44 44 44 44 44 44 44 44 44 44
50 50 50 49 49 50 51 50 50 50 49 49 49 48 48 48 48 48 49 48 48 48 48 48 48 48 46 46 45 45 45 45 45 45 45 45 45 45
52 52 52 52 52 51 51 51 51 52 51 49 49 50 49 49 49 50 50 50 50 49 49 49 49 50 49 48 47 47 47 47 47 47 47 46 46 46
53 53 53 53 53 53 52 52 52 52 53 51 50 50 51 51 50 51 51 51 51 51 51 51 51 51 51 51 50 50 50 50 49 49 49 48 48 48
54 54 54 54 54 54 54 54 53 53 54 54 52 52 52 52 52 52 52 53 53 53 53 53 53 53 53 53 52 52 52 52 52 52 51 50 50 50
55 56 56 56 56 56 56 55 55 55 55 55 55 55 55 54 54 53 54 54 55 55 55 55 55 55 54 54 54 54 54 53 53 53 53 53 52 52
56 57 57 57 57 57 57 56 56 56 56 56 56 57 57 56 55 55 55 55 56 56 56 56 56 56 56 56 56 55 55 55 55 55 55 55 55 54
56 57 57 57 58 58 57 57 57 57 57 57 56 57 58 57 57 56 56 56 56 56 57 56 56 56 56 56 56 55 55 56 56 57 57 57 57 56
56 57 56 57 58 57 57 57 57 57 58 58 57 57 57 58 58 57 57 57 56 56 56 56 57 56 56 56 56 56 55 56 56 57 57 57 57 56
57 56 57 56 56 57 57 57 57 57 58 59 58 58 57 57 58 58 57 57 56 56 56 55 56 56 56 56 56 56 56 56 56 56 57 56 56 56
57 57 57 57 58 59 59 59 59 59 60 60 59 59 58 58 58 58 57 57 56 56 56 56 56 56 56 55 56 57 57 57 57 57 57 56 56 56
56 57 57 58 59 59 59 59 59 59 59 60 60 59 60 59 59 58 58 58 58 57 56 57 57 57 57 56 56 57 57 57 57 58 57 56 56 56
55 56 56 57 57 58 58 59 58 59 60 60 60 60 60 60 60 59 59 59 58 58 57 58 58 57 57 56 56 57 57 57 57 57 57 56 56 56
54 55 55 56 57 57 57 57 57 58 58 59 60 60 60 60 60 59 59 59 58 57 57 58 58 58 57 57 57 57 56 56 56 56 56 55 55 56
55 55 56 56 57 57 56 56 57 57 57 58 59 59 59 60 60 59 59 59 58 58 58 57 57 57 57 57 57 56 55 54 55 55 55 55 54 54
55 55 56 56 57 57 56 56 57 57 57 58 58 58 59 59 59 59 59 59 59 58 57 57 57 57 57 57 57 56 55 54 53 53 53 52 52 52
54 54 54 55 55 56 55 55 55 56 56 56 57 57 57 57 57 57 58 58 57 57 56 56 55 55 55 55 54 54 54 54 53 53 52 51 50 50
52 52 52 53 52 52 52 53 53 53 54 53 53 53 53 53 53 54 55 55 55 55 54 54 54 54 53 53 53 53 52 52 52 52 52 51 50 50
48 48 49 50 50 50 50 50 51 51 51 51 51 51 51 51 51 52 52 53 53 53 53 53 52 52 52 51 51 52 52 51 51 51 52 51 50 50
46 46 46 47 48 48 48 48 49 49 49 49 49 49 49 50 50 50 50 50 51 51 52 52 52 51 51 51 51 51 51 51 51 51 50 50 50 50
45 45 46 46 46 47 46 46 46 46 47 47 48 48 48 49 49 49 50 50 50 50 50 50 51 51 51 51 51 50 50 50 50 50 49 49 49 49
43 44 44 44 44 45 45 45 45 45 45 45 45 46 47 47 48 48 48 48 48 49 49 49 49 50 50 50 50 50 49 49 48 48 48 47 47 46
42 42 42 42 43 43 43 44 44 44 44 44 44 44 44 45 47 47 47 47 47 47 48 48 48 49 49 49 49 48 47 46 46 46 46 46 46 45
Wind_Direction
260 259 259 259 260 261 261 261 262 261 260 260 260 260 261 261 262 262 263 263 264 265 266 267 268 269 270 270 271 272 274 275 275 275 275 275 276 277
261 260 259 259 260 261 261 261 262 261 260 260 260 260 261 261 261 262 263 263 265 265 266 267 268 269 270 270 271 272 274 275 275 275 276 276 276 277
261 261 261 260 260 261 261 261 263 262 261 260 259 259 260 260 261 262 263 263 264 265 266 267 268 269 270 270 271 273 274 275 275 276 277 276 276 277
261 261 261 261 261 262 261 262 263 263 262 261 260 260 260 260 261 262 263 263 264 265 266 267 268 269 270 271 271 272 274 274 274 275 276 275 276 276
261 261 261 261 261 262 262 262 262 263 263 262 260 260 261 262 262 262 263 264 265 265 266 267 268 269 270 271 272 272 273 274 274 274 274 274 274 274
261 261 260 260 260 261 261 261 262 262 262 263 262 260 261 262 263 263 263 264 265 266 266 267 268 269 270 271 271 271 272 273 273 273 274 274 274 274
261 261 260 260 260 260 260 260 261 262 262 263 263 261 261 262 263 264 264 264 265 266 267 267 268 269 269 270 270 271 271 272 272 273 273 273 273 273
262 261 261 261 260 260 259 260 261 261 262 263 263 262 262 262 262 263 264 265 266 266 266 266 268 269 270 270 270 271 271 272 272 272 273 273 273 273
262 261 261 262 261 260 260 260 260 261 262 262 263 263 262 262 262 262 264 265 266 267 267 267 267 268 268 269 270 271 271 271 271 271 272 273 272 272
261 261 261 261 261 261 260 260 260 261 262 262 262 262 262 263 263 264 264 265 266 267 268 267 267 267 267 268 269 270 271 271 272 272 272 272 271 270
261 261 261 261 262 262 261 261 261 261 261 262 262 262 262 262 263 264 264 266 266 267 267 267 267 267 268 268 269 270 271 271 272 273 273 272 271 270
261 261 261 262 263 263 263 262 262 262 262 263 262 262 261 261 262 263 265 266 266 266 267 267 267 267 268 268 269 270 271 272 273 273 273 272 270 270
262 262 262 262 262 263 263 262 262 261 262 262 262 262 262 262 262 263 265 266 266 267 267 267 267 267 268 269 269 271 272 272 272 273 273 271 270 270
262 262 262 262 262 262 263 262 262 262 262 261 261 262 262 262 262 263 264 265 266 266 267 267 267 267 268 269 269 271 272 272 272 272 271 270 270 270
263 262 262 262 262 262 262 262 261 262 262 262 262 263 262 262 262 262 263 264 265 266 267 267 267 267 267 269 269 270 271 271 272 272 271 270 271 271
264 263 263 263 263 263 262 262 262 262 263 262 262 262 262 262 261 262 263 263 263 264 266 267 267 267 267 268 269 270 271 271 272 271 270 270 271 271
265 264 263 262 262 263 263 262 262 262 262 262 262 262 262 262 262 262 262 262 262 263 264 266 267 267 268 269 269 270 270 271 271 270 270 270 270 270
266 264 263 262 262 262 263 262 261 262 262 262 262 262 262 261 260 260 261 261 262 263 264 264 265 266 267 268 270 270 270 270 270 270 270 269 269 269
265 264 263 262 261 262 263 262 261 262 262 262 262 262 261 260 260 260 261 261 262 263 264 264 265 266 267 268 269 269 270 269 269 270 270 269 269 270
265 264 264 263 263 263 263 262 261 262 262 262 262 262 261 260 260 260 261 261 262 263 263 264 266 267 268 268 268 267 268 269 269 269 269 268 268 269
265 264 264 264 264 263 261 261 261 261 262 262 262 262 262 260 260 260 261 262 262 263 264 264 265 267 268 268 268 267 268 269 268 268 268 268 267 268
265 265 265 264 263 262 260 260 260 261 261 262 262 262 261 261 261 260 261 262 263 263 264 265 265 267 267 268 268 268 268 268 267 267 267 268 269 270
266 265 265 264 262 261 260 260 260 261 261 262 262 262 262 261 260 260 261 262 263 263 264 266 266 267 267 267 268 268 268 267 266 266 266 267 268 270